Location: Hillern
(53.0557°N, 9.8577°E)
Time: 20:17:03
(UTC+00:00)

Cosmos 1975 - Pass Details

Date: 19 May 2025
Orbit: 487 x 506 km, 82.5° (Epoch: 20 June)

Event Time Altitude Azimuth Distance (km) Brightness Sun altitude
Rises 21:08:49 0° 358° (N) 2,579 7.4 -11.9°
Reaches altitude 10° 21:11:17 10° 14° (NNE) 1,690 6.0 -12.1°
Maximum altitude 21:14:14 22° 67° (ENE) 1,106 4.3 -12.3°
Enters shadow 21:16:26 14° 112° (ESE) 1,450 4.5 -12.4°
